TimeCDT,TemperatureF,Dew PointF,Humidity,Sea Level PressureIn,VisibilityMPH,Wind Direction,Wind SpeedMPH,Gust SpeedMPH,PrecipitationIn,Events,Conditions,WindDirDegrees,DateUTC
12:53 AM,34.0,33.1,96,30.12,0.2,WNW,3.5,-,N/A,Fog,Fog,300,2013-04-09 05:53:00
1:53 AM,34.0,33.1,96,30.13,0.2,Calm,Calm,-,N/A,Fog,Fog,0,2013-04-09 06:53:00
2:38 AM,33.8,32.0,93,30.08,0.2,Calm,Calm,-,N/A,Fog,Fog,0,2013-04-09 07:38:00
2:45 AM,33.8,32.0,93,30.08,0.5,Calm,Calm,-,N/A,Fog,Fog,0,2013-04-09 07:45:00
2:53 AM,34.0,32.0,92,30.10,0.8,Calm,Calm,-,N/A,,Overcast,0,2013-04-09 07:53:00
3:35 AM,33.8,32.0,93,30.07,0.8,WNW,3.5,-,N/A,,Overcast,300,2013-04-09 08:35:00
3:45 AM,33.8,32.0,93,30.06,1.5,NNW,3.5,-,N/A,,Overcast,330,2013-04-09 08:45:00
3:53 AM,33.1,32.0,96,30.09,1.2,Calm,Calm,-,N/A,,Overcast,0,2013-04-09 08:53:00
3:58 AM,33.8,32.0,93,30.06,3.0,Calm,Calm,-,N/A,,Overcast,0,2013-04-09 08:58:00
4:53 AM,33.1,32.0,96,30.09,8.0,North,4.6,-,N/A,,Overcast,10,2013-04-09 09:53:00
5:13 AM,33.8,30.2,87,30.08,7.0,Calm,Calm,-,N/A,,Overcast,0,2013-04-09 10:13:00
5:49 AM,33.8,32.0,93,30.13,8.0,SSW,3.5,-,N/A,,Overcast,200,2013-04-09 10:49:00
5:53 AM,34.0,32.0,92,30.17,9.0,SSW,3.5,-,N/A,,Overcast,210,2013-04-09 10:53:00
6:35 AM,33.8,30.2,87,30.11,7.0,North,4.6,-,N/A,,Overcast,350,2013-04-09 11:35:00
6:53 AM,34.0,32.0,92,30.15,10.0,NNW,5.8,-,N/A,,Overcast,330,2013-04-09 11:53:00
7:53 AM,36.0,33.1,89,30.16,10.0,North,8.1,-,N/A,,Overcast,10,2013-04-09 12:53:00
8:53 AM,37.0,32.0,82,30.17,10.0,North,8.1,-,N/A,,Overcast,10,2013-04-09 13:53:00
9:53 AM,37.9,30.9,76,30.17,10.0,NNE,12.7,-,N/A,,Overcast,20,2013-04-09 14:53:00
10:53 AM,37.0,28.9,73,30.19,10.0,NNE,16.1,20.7,N/A,,Overcast,20,2013-04-09 15:53:00
11:53 AM,37.0,28.9,73,30.19,10.0,NNE,15.0,23.0,N/A,,Overcast,30,2013-04-09 16:53:00
12:53 PM,39.0,30.0,70,30.20,10.0,NE,15.0,23.0,N/A,,Partly Cloudy,40,2013-04-09 17:53:00
1:41 PM,37.4,30.2,75,30.18,10.0,ENE,19.6,24.2,N/A,,Mostly Cloudy,60,2013-04-09 18:41:00
1:53 PM,37.0,28.9,73,30.22,10.0,ENE,18.4,24.2,N/A,,Overcast,70,2013-04-09 18:53:00
2:13 PM,39.2,28.4,65,30.18,10.0,ENE,17.3,21.9,N/A,,Mostly Cloudy,70,2013-04-09 19:13:00
2:53 PM,37.0,25.0,62,30.21,10.0,ENE,16.1,-,N/A,,Clear,60,2013-04-09 19:53:00
3:53 PM,39.0,26.1,60,30.22,10.0,ENE,13.8,21.9,N/A,,Clear,60,2013-04-09 20:53:00
4:53 PM,37.0,23.0,57,30.21,10.0,ENE,16.1,-,N/A,,Clear,60,2013-04-09 21:53:00
5:53 PM,36.0,19.0,50,30.21,10.0,ENE,15.0,-,N/A,,Clear,60,2013-04-09 22:53:00
6:53 PM,33.1,25.0,72,30.25,10.0,NNE,9.2,-,N/A,,Clear,20,2013-04-09 23:53:00
7:53 PM,32.0,25.0,75,30.25,10.0,NNE,9.2,-,N/A,,Clear,30,2013-04-10 00:53:00
8:53 PM,30.9,26.1,82,30.23,10.0,NNE,10.4,-,N/A,,Clear,30,2013-04-10 01:53:00
9:53 PM,32.0,25.0,75,30.24,10.0,NNE,9.2,-,N/A,,Clear,30,2013-04-10 02:53:00
10:53 PM,30.9,24.1,76,30.22,10.0,NNE,9.2,-,N/A,,Clear,30,2013-04-10 03:53:00
11:53 PM,30.9,23.0,72,30.23,10.0,NE,10.4,-,N/A,,Clear,40,2013-04-10 04:53:00